WA5KWK Weather Reports


Display with metric or nautical units.
time (UTC)temp
F
wind
direction
speed
MPH
gust
MPH
rain 1hr
in
rain 24hr
in
rain mn
in
humidity
%
barometer
mb
20260903043504 60 289 0.0 0.0 0.00 0.00 0.00 70 1016.9
20260903043004 60 289 0.0 0.0 0.00 0.00 0.00 70 1016.9
20260903042504 60 289 0.0 0.0 0.00 0.00 0.00 70 1016.9
20260903042005 60 289 0.0 0.0 0.00 0.00 0.00 69 1017.0
20260903041004 61 289 0.0 0.0 0.00 0.00 0.00 69 1016.9
20260903040503 61 289 0.0 0.0 0.00 0.00 0.00 68 1016.8
20260903040004 61 289 0.0 0.0 0.00 0.00 0.00 68 1016.8
20260903035503 61 289 0.0 0.0 0.00 0.00 0.00 68 1016.8
20260903035004 61 289 0.0 1.0 0.00 0.00 0.00 67 1016.6
20260903034504 62 289 0.0 0.0 0.00 0.00 0.00 67 1016.6
20260903034004 62 289 0.0 1.0 0.00 0.00 0.00 66 1016.6
20260903033504 62 289 1.0 2.0 0.00 0.00 0.00 66 1016.7
20260903033004 62 289 1.0 2.0 0.00 0.00 0.00 66 1016.5
20260903032503 63 289 2.0 3.0 0.00 0.00 0.00 66 1016.5
20260903031504 63 277 1.0 3.0 0.00 0.00 0.00 65 1016.5
20260903030504 63 277 1.0 3.0 0.00 0.00 0.00 64 1016.4
20260903030004 64 277 1.0 3.0 0.00 0.00 0.00 63 1016.5
20260903025503 64 271 1.0 3.0 0.00 0.00 0.00 63 1016.4
20260903025003 64 271 1.0 3.0 0.00 0.00 0.00 62 1016.3
20260903024504 64 266 1.0 2.0 0.00 0.00 0.00 62 1016.4
20260903024004 64 266 1.0 3.0 0.00 0.00 0.00 61 1016.4
20260903023504 65 266 0.0 0.0 0.00 0.00 0.00 61 1016.4
20260903023003 65 266 1.0 2.0 0.00 0.00 0.00 61 1016.5
20260903022504 65 266 2.0 3.0 0.00 0.00 0.00 60 1016.4
20260903022004 65 264 2.0 6.0 0.00 0.00 0.00 60 1016.5
20260903021504 66 254 2.0 3.0 0.00 0.00 0.00 59 1016.4
20260903020503 67 252 2.0 3.0 0.00 0.00 0.00 57 1016.5
20260903020004 68 268 1.0 6.0 0.00 0.00 0.00 56 1016.6
20260903015004 68 319 2.0 5.0 0.00 0.00 0.00 56 1016.6
20260903014503 68 3 2.0 7.0 0.00 0.00 0.00 56 1016.6
20260903014004 68 266 3.0 6.0 0.00 0.00 0.00 56 1016.5
20260903013503 68 293 2.0 6.0 0.00 0.00 0.00 56 1016.6
20260903013004 68 271 3.0 6.0 0.00 0.00 0.00 56 1016.6
20260903012504 68 259 3.0 7.0 0.00 0.00 0.00 57 1016.6
20260903012003 69 261 3.0 9.0 0.00 0.00 0.00 56 1016.6
20260903011504 69 257 3.0 8.0 0.00 0.00 0.00 55 1016.7
20260903011005 69 279 2.0 8.0 0.00 0.00 0.00 55 1016.7
20260903010505 70 323 3.0 8.0 0.00 0.00 0.00 53 1016.6
20260903010005 70 250 1.0 3.0 0.00 0.00 0.00 53 1016.7
20260903005005 70 274 3.0 8.0 0.00 0.00 0.00 52 1016.7
20260903004504 70 206 6.0 12.0 0.00 0.00 0.00 51 1016.6
20260903004005 70 258 3.0 12.0 0.00 0.00 0.00 51 1016.8
20260903003505 70 212 5.0 9.0 0.00 0.00 0.00 51 1016.7
20260903002505 71 299 3.0 7.0 0.00 0.00 0.00 51 1016.6
20260903002005 71 168 4.0 8.0 0.00 0.00 0.00 50 1016.7
20260903001504 71 189 4.0 12.0 0.00 0.00 0.00 50 1016.7
20260903001005 71 176 3.0 10.0 0.00 0.00 0.00 49 1016.7
20260903000505 71 242 3.0 8.0 0.00 0.00 0.00 49 1016.7
20260902235505 71 238 4.0 10.0 0.00 0.00 0.00 48 1016.7
20260902234504 71 223 6.0 10.0 0.00 0.00 0.00 48 1016.7
20260902234004 71 252 6.0 12.0 0.00 0.00 0.00 47 1016.8
20260902233005 71 285 5.0 10.0 0.00 0.00 0.00 47 1016.8
20260902232505 72 157 3.0 10.0 0.00 0.00 0.00 47 1016.8
20260902232005 72 250 4.0 9.0 0.00 0.00 0.00 46 1016.6
20260902231505 71 252 3.0 7.0 0.00 0.00 0.00 47 1016.8
20260902231005 70 297 3.0 7.0 0.00 0.00 0.00 48 1016.9
20260902230005 71 231 6.0 12.0 0.00 0.00 0.00 46 1016.9
20260902225505 72 197 5.0 12.0 0.00 0.00 0.00 45 1016.8
20260902225005 72 208 5.0 8.0 0.00 0.00 0.00 44 1016.9
20260902223505 72 198 5.0 12.0 0.00 0.00 0.00 44 1016.9
20260902223004 73 265 3.0 10.0 0.00 0.00 0.00 44 1017.0
20260902222506 73 160 5.0 10.0 0.00 0.00 0.00 44 1017.0
20260902222005 72 198 3.0 8.0 0.00 0.00 0.00 43 1017.0
20260902221505 72 195 3.0 7.0 0.00 0.00 0.00 44 1017.3
20260902221004 71 166 3.0 10.0 0.00 0.00 0.00 44 1017.3
20260902215005 71 136 3.0 12.0 0.00 0.00 0.00 42 1017.3
20260902214504 72 200 6.0 13.0 0.00 0.00 0.00 42 1017.4
20260902213504 72 160 5.0 10.0 0.00 0.00 0.00 43 1017.6
20260902213005 72 163 6.0 9.0 0.00 0.00 0.00 44 1017.4
20260902212504 72 210 8.0 15.0 0.00 0.00 0.00 43 1017.6
20260902212005 72 221 9.0 16.0 0.00 0.00 0.00 43 1017.1
20260902211504 71 114 5.0 10.0 0.00 0.00 0.00 40 1017.3
20260902211004 71 151 6.0 12.0 0.00 0.00 0.00 39 1017.3
20260902205504 71 194 10.0 17.0 0.00 0.00 0.00 42 1017.6
20260902204505 71 260 4.0 12.0 0.00 0.00 0.00 44 1017.6
20260902204005 72 223 7.0 10.0 0.00 0.00 0.00 44 1017.7
20260902203505 72 97 4.0 9.0 0.00 0.00 0.00 43 1017.8
20260902202504 70 175 6.0 10.0 0.00 0.00 0.00 46 1017.7
20260902202004 70 200 9.0 14.0 0.00 0.00 0.00 45 1017.7
20260902201504 69 201 6.0 12.0 0.00 0.00 0.00 45 1017.7
20260902201004 69 220 8.0 13.0 0.00 0.00 0.00 46 1017.9
20260902200505 69 188 4.0 12.0 0.00 0.00 0.00 46 1017.9
20260902200005 70 178 5.0 12.0 0.00 0.00 0.00 45 1017.8
20260902195504 70 166 4.0 10.0 0.00 0.00 0.00 45 1018.0
20260902195004 69 158 6.0 13.0 0.00 0.00 0.00 45 1018.0
20260902194005 69 169 7.0 12.0 0.00 0.00 0.00 47 1018.2
20260902193504 69 189 6.0 13.0 0.00 0.00 0.00 47 1018.1
20260902193004 69 170 5.0 12.0 0.00 0.00 0.00 48 1018.0
20260902192005 67 201 6.0 12.0 0.00 0.00 0.00 49 1018.2
20260902190005 67 167 6.0 12.0 0.00 0.00 0.00 50 1018.2
20260902185504 67 227 5.0 10.0 0.00 0.00 0.00 52 1018.1
20260902185005 66 218 4.0 9.0 0.00 0.00 0.00 52 1018.3
20260902184504 66 171 9.0 15.0 0.00 0.00 0.00 52 1018.2
20260902184004 65 208 5.0 12.0 0.00 0.00 0.00 53 1018.1
20260902183504 66 201 6.0 12.0 0.00 0.00 0.00 53 1018.2
20260902183005 65 183 6.0 13.0 0.00 0.00 0.00 53 1018.2
20260902182505 66 203 6.0 12.0 0.00 0.00 0.00 53 1018.3
20260902182004 66 230 6.0 13.0 0.00 0.00 0.00 54 1018.2
20260902181504 65 204 5.0 8.0 0.00 0.00 0.00 54 1018.2
20260902180505 64 250 6.0 12.0 0.00 0.00 0.00 55 1018.1
20260902175505 64 224 6.0 10.0 0.00 0.00 0.00 55 1018.1
20260902175005 64 230 5.0 9.0 0.00 0.00 0.00 56 1018.1
20260902174504 64 170 4.0 9.0 0.00 0.00 0.00 58 1018.0
20260902174005 63 195 4.0 9.0 0.00 0.00 0.00 59 1018.0
20260902173504 63 191 4.0 7.0 0.00 0.00 0.00 58 1018.0
20260902173005 63 162 3.0 8.0 0.00 0.00 0.00 58 1018.0
20260902172504 63 214 5.0 6.0 0.00 0.00 0.00 58 1018.0
20260902172005 63 206 4.0 9.0 0.00 0.00 0.00 57 1017.9
20260902171005 62 200 3.0 5.0 0.00 0.00 0.00 60 1017.9
20260902170504 62 216 3.0 7.0 0.00 0.00 0.00 61 1017.9
20260902170004 61 302 1.0 3.0 0.00 0.00 0.00 61 1018.0
20260902165505 62 300 2.0 3.0 0.00 0.00 0.00 61 1018.0
20260902165004 61 250 3.0 6.0 0.00 0.00 0.00 61 1017.8
20260902164504 61 205 2.0 6.0 0.00 0.00 0.00 61 1017.9
20260902164005 61 207 3.0 6.0 0.00 0.00 0.00 61 1017.8
20260902163504 61 222 3.0 6.0 0.00 0.00 0.00 61 1017.8
20260902162504 61 213 2.0 5.0 0.00 0.00 0.00 61 1017.8
20260902162005 61 218 3.0 6.0 0.00 0.00 0.00 62 1017.7
20260902161504 61 175 3.0 6.0 0.00 0.00 0.00 61 1017.6
20260902161005 61 175 2.0 5.0 0.00 0.00 0.00 62 1017.8
20260902160007 60 174 1.0 5.0 0.00 0.00 0.00 64 1017.5
20260902155504 59 202 2.0 3.0 0.00 0.00 0.00 66 1017.6
20260902154505 58 350 0.0 0.0 0.00 0.00 0.00 68 1017.6
20260902154004 58 350 0.0 0.0 0.00 0.00 0.00 70 1017.6
20260902153504 57 350 0.0 0.0 0.00 0.00 0.00 70 1017.5
20260902152504 57 350 0.0 0.0 0.00 0.00 0.00 70 1017.5
20260902152005 57 350 0.0 0.0 0.00 0.00 0.00 70 1017.5
20260902151504 57 350 0.0 0.0 0.00 0.00 0.00 71 1017.5
20260902150007 55 350 0.0 0.0 0.00 0.00 0.00 73 1017.5
20260902145504 55 350 0.0 0.0 0.00 0.00 0.00 73 1017.6
20260902145004 54 350 0.0 0.0 0.00 0.00 0.00 73 1017.6
20260902144504 54 350 0.0 1.0 0.00 0.00 0.00 73 1017.5
20260902144005 54 350 1.0 2.0 0.00 0.00 0.00 74 1017.4
20260902143504 53 350 0.0 0.0 0.00 0.00 0.00 75 1017.4
20260902143004 53 350 0.0 0.0 0.00 0.00 0.00 75 1017.4
20260902142505 53 350 0.0 1.0 0.00 0.00 0.00 76 1017.2
20260902142004 52 350 1.0 2.0 0.00 0.00 0.00 76 1017.2
20260902141505 52 350 2.0 2.0 0.00 0.00 0.00 76 1017.1
20260902141005 52 350 1.0 2.0 0.00 0.00 0.00 76 1016.9
20260902140504 52 350 0.0 2.0 0.00 0.00 0.00 77 1016.9
20260902140004 52 350 0.0 0.0 0.00 0.00 0.00 77 1016.9
20260902135505 52 350 0.0 0.0 0.00 0.00 0.00 77 1016.8
20260902135004 52 350 0.0 0.0 0.00 0.00 0.00 77 1016.9
20260902134504 52 350 0.0 0.0 0.00 0.00 0.00 77 1016.8
20260902133505 52 350 0.0 0.0 0.00 0.00 0.00 77 1016.8
20260902133005 52 350 0.0 0.0 0.00 0.00 0.00 77 1016.6
20260902132504 52 350 0.0 0.0 0.00 0.00 0.00 77 1016.4
20260902132004 52 350 0.0 0.0 0.00 0.00 0.00 77 1016.4
20260902131504 52 350 0.0 0.0 0.00 0.00 0.00 77 1016.3
20260902131004 52 350 0.0 0.0 0.00 0.00 0.00 77 1016.3
20260902130505 52 350 0.0 0.0 0.00 0.00 0.00 77 1016.3
20260902130004 52 350 0.0 0.0 0.00 0.00 0.00 77 1016.4
20260902125504 52 350 0.0 0.0 0.00 0.00 0.00 77 1016.4
20260902125005 52 350 0.0 0.0 0.00 0.00 0.00 77 1016.2
20260902124504 52 350 0.0 0.0 0.00 0.00 0.00 78 1016.3
20260902124004 52 350 0.0 0.0 0.00 0.00 0.00 78 1016.4
20260902123504 52 350 0.0 0.0 0.00 0.00 0.00 78 1016.2
20260902123004 52 350 0.0 0.0 0.00 0.00 0.00 78 1016.2
20260902122504 52 350 0.0 0.0 0.00 0.00 0.00 78 1016.2
20260902122005 52 350 0.0 0.0 0.00 0.00 0.00 78 1016.2
20260902121504 52 350 0.0 0.0 0.00 0.00 0.00 78 1016.1
20260902121004 52 350 0.0 0.0 0.00 0.00 0.00 78 1016.3
20260902120505 52 350 0.0 0.0 0.00 0.00 0.00 79 1016.4
20260902120004 51 350 0.0 0.0 0.00 0.00 0.00 79 1016.2
20260902115504 51 350 0.0 0.0 0.00 0.00 0.00 79 1016.2
20260902115005 51 350 0.0 0.0 0.00 0.00 0.00 79 1016.2
20260902114504 51 350 0.0 0.0 0.00 0.00 0.00 79 1016.4
20260902113004 51 350 0.0 0.0 0.00 0.00 0.00 79 1016.4
20260902112505 51 350 0.0 0.0 0.00 0.00 0.00 79 1016.5
20260902112005 52 350 0.0 0.0 0.00 0.00 0.00 79 1016.5
20260902111005 52 350 0.0 0.0 0.00 0.00 0.00 79 1016.4
20260902110504 52 350 0.0 0.0 0.00 0.00 0.00 79 1016.4
20260902110007 52 350 0.0 0.0 0.00 0.00 0.00 79 1016.7
20260902105504 52 350 0.0 0.0 0.00 0.00 0.00 78 1016.7
20260902105005 52 350 0.0 0.0 0.00 0.00 0.00 78 1016.6
20260902104504 52 350 0.0 0.0 0.00 0.00 0.00 79 1016.7
20260902103504 52 350 0.0 0.0 0.00 0.00 0.00 79 1016.6
20260902103004 52 350 0.0 1.0 0.00 0.00 0.00 79 1016.6
20260902102505 51 350 1.0 2.0 0.00 0.00 0.00 79 1016.7
20260902102006 51 350 1.0 3.0 0.00 0.00 0.00 79 1016.7
20260902100004 51 350 2.0 3.0 0.00 0.00 0.00 79 1016.6
20260902095505 51 350 1.0 2.0 0.00 0.00 0.00 80 1016.6
20260902095005 51 350 1.0 2.0 0.00 0.00 0.00 80 1016.5
20260902094504 51 350 1.0 2.0 0.00 0.00 0.00 81 1016.5
20260902094005 51 350 1.0 2.0 0.00 0.00 0.00 82 1016.7
20260902093504 50 350 1.0 2.0 0.00 0.00 0.00 82 1016.7
20260902093004 50 350 1.0 3.0 0.00 0.00 0.00 82 1016.7
20260902092504 50 350 0.0 0.0 0.00 0.00 0.00 82 1016.6
20260902091504 50 350 0.0 0.0 0.00 0.00 0.00 83 1016.6
20260902091005 50 350 0.0 0.0 0.00 0.00 0.00 84 1016.7
20260902090505 50 350 0.0 0.0 0.00 0.00 0.00 84 1016.5
20260902090005 50 350 0.0 0.0 0.00 0.00 0.00 84 1016.6
20260902085005 50 350 0.0 2.0 0.00 0.00 0.00 85 1016.6
20260902084504 50 350 1.0 2.0 0.00 0.00 0.00 85 1016.6
20260902084004 49 350 1.0 2.0 0.00 0.00 0.00 85 1016.7
20260902083504 49 350 1.0 2.0 0.00 0.00 0.00 85 1016.8
20260902083006 49 350 1.0 3.0 0.00 0.00 0.00 85 1016.8
20260902082504 49 350 2.0 2.0 0.00 0.00 0.00 85 1016.8
20260902082004 50 350 2.0 3.0 0.00 0.00 0.00 84 1016.9
20260902081504 50 350 1.0 2.0 0.00 0.00 0.00 84 1016.8
20260902081004 50 350 1.0 2.0 0.00 0.00 0.00 84 1016.9
20260902080504 50 350 0.0 0.0 0.00 0.00 0.00 84 1016.8
20260902080004 50 350 1.0 2.0 0.00 0.00 0.00 84 1016.8
20260902075004 50 350 1.0 2.0 0.00 0.00 0.00 84 1016.8
20260902074504 50 350 0.0 0.0 0.00 0.00 0.00 85 1016.7
20260902073504 51 350 0.0 0.0 0.00 0.00 0.00 83 1016.8
20260902073004 51 350 0.0 0.0 0.00 0.00 0.00 83 1016.9
20260902072504 51 350 0.0 0.0 0.00 0.00 0.00 83 1016.7
20260902072005 51 350 0.0 0.0 0.00 0.00 0.00 83 1016.5
20260902071503 51 350 0.0 0.0 0.00 0.00 0.00 83 1016.6
20260902071006 51 350 0.0 0.0 0.00 0.00 0.00 83 1016.4
20260902070505 51 350 0.0 0.0 0.00 0.00 0.00 83 1016.5
20260902065504 51 350 0.0 0.0 0.00 0.00 0.00 83 1016.5
20260902065004 51 350 0.0 0.0 0.00 0.00 0.00 83 1016.6
20260902064504 51 350 0.0 0.0 0.00 0.00 0.00 83 1016.7
20260902064004 51 350 0.0 0.0 0.00 0.00 0.00 83 1016.7
20260902063504 51 350 0.0 0.0 0.00 0.00 0.00 83 1016.7
20260902063005 51 350 0.0 0.0 0.00 0.00 0.00 83 1016.9
20260902062504 51 350 0.0 1.0 0.00 0.00 0.00 82 1016.9
20260902062004 51 350 0.0 0.0 0.00 0.00 0.00 82 1017.1
20260902061504 51 350 0.0 0.0 0.00 0.00 0.00 81 1017.0
20260902061004 51 350 0.0 0.0 0.00 0.00 0.00 80 1017.2
20260902060504 52 350 0.0 0.0 0.00 0.00 0.00 81 1017.2
20260902060004 52 350 0.0 1.0 0.00 0.00 0.00 81 1017.2
20260902055504 52 350 0.0 1.0 0.00 0.00 0.00 80 1017.3
20260902055004 52 350 0.0 1.0 0.00 0.00 0.00 79 1017.3
20260902054503 52 350 0.0 1.0 0.00 0.00 0.00 79 1017.4
20260902054004 53 350 0.0 0.0 0.00 0.00 0.00 79 1017.4
20260902053504 53 350 0.0 1.0 0.00 0.00 0.00 79 1017.6
20260902052504 53 350 0.0 1.0 0.00 0.00 0.00 78 1017.6
20260902052004 53 350 0.0 1.0 0.00 0.00 0.00 78 1017.6
20260902051504 53 350 0.0 0.0 0.00 0.00 0.00 77 1017.6
20260902051004 53 350 0.0 0.0 0.00 0.00 0.00 77 1017.4
20260902050504 54 350 0.0 1.0 0.00 0.00 0.00 77 1017.5
20260902045504 54 350 1.0 2.0 0.00 0.00 0.00 77 1017.4
20260902045004 54 354 0.0 2.0 0.00 0.00 0.00 76 1017.4
20260902044504 54 354 1.0 3.0 0.00 0.00 0.00 76 1017.4